Lid_Strength_Index
17 17 17 16 16 17 16 16 16 16 16 16 16 16 16 16 16 17 18 18 17 15
16 16 17 17 16 16 16 15 15 16 16 16 16 15 16 16 16 16 15 16 16 16
15 15 16 15 15 15 15 15 15 15 15 15 15 16 16 16 16 16 16 15 16 15
14 15 15 15 15 15 15 15 15 15 15 15 15 15 16 16 16 16 16 16 16 15
14 14 15 15 15 15 15 15 15 14 15 15 15 15 16 16 16 16 16 16 16 16
14 15 15 15 15 15 15 15 15 15 16 16 16 16 16 16 15 15 15 15 15 15
14 15 15 15 15 16 16 16 17 17 17 16 16 16 15 15 15 15 15 15 15 15
14 15 15 16 16 17 16 17 16 16 16 16 15 14 14 14 14 14 15 14 14 14
15 15 16 17 17 16 16 16 16 16 16 16 15 13 12 12 14 14 15 16 15 15
17 17 17 17 16 16 17 16 17 17 17 17 17 13 12 12 14 15 15 16 16 16
17 18 17 17 17 17 17 18 18 18 18 18 17 14 13 13 14 15 16 16 16 16
17 18 18 20 19 19 19 19 20 18 19 20 19 15 14 14 15 16 16 16 15 15
17 20 21 19 20 20 21 19 18 19 19 20 20 16 14 13 15 17 16 15 15 13
18 20 21 21 21 23 23 20 22 21 21 21 19 19 14 12 13 14 15 15 14 14